GW5292 Weather Reports


Display with metric or nautical units.
time (UTC)temp
F
wind
direction
speed
MPH
gust
MPH
rain 1hr
in
rain 24hr
in
rain mn
in
humidity
%
barometer
mb
20260505053002 59 226 0.0 2.0 0.00 0.00 0.00 63 1009.7
20260505051503 60 17 0.0 2.0 0.00 0.00 0.00 61 1009.5
20260505041503 60 265 0.0 2.0 0.00 0.00 0.00 59 1009.5
20260505040006 61 339 0.0 4.0 0.00 0.00 0.00 56 1009.4
20260505034507 61 333 0.0 2.0 0.00 0.00 0.00 56 1009.2
20260505033017 61 346 0.0 2.0 0.00 0.00 0.00 53 1009.2
20260505031510 63 166 0.0 3.0 0.00 0.00 0.00 51 1009.2
20260505030004 64 336 0.0 2.0 0.00 0.00 0.00 47 1009.2
20260505024505 65 144 0.0 3.0 0.00 0.00 0.00 46 1009.2
20260505023011 66 210 3.0 7.0 0.00 0.00 0.00 44 1009.2
20260505021515 67 212 4.0 8.0 0.00 0.00 0.00 43 1009.4
20260505020014 67 155 5.0 10.0 0.00 0.00 0.00 43 1009.4
20260505014508 67 196 5.0 10.0 0.00 0.00 0.00 42 1009.4
20260505013009 67 196 6.0 15.0 0.00 0.00 0.00 42 1009.4
20260505011519 66 205 4.0 9.0 0.00 0.00 0.00 44 1009.2
20260505010015 66 194 4.0 9.0 0.00 0.00 0.00 45 1009.2
20260505004535 66 202 3.0 5.0 0.00 0.00 0.00 45 1009.1
20260505003005 67 192 2.0 5.0 0.00 0.00 0.00 44 1008.9
20260505001512 67 197 3.0 7.0 0.00 0.00 0.00 43 1008.9
20260505000018 68 205 3.0 8.0 0.00 0.00 0.00 42 1008.7
20260504234527 69 184 2.0 6.0 0.00 0.00 0.00 40 1008.7
20260504233018 69 173 5.0 8.0 0.00 0.00 0.00 40 1008.5
20260504231519 69 171 5.0 9.0 0.00 0.00 0.00 40 1008.5
20260504230012 70 193 6.0 14.0 0.00 0.00 0.00 39 1008.3
20260504224517 71 205 5.0 9.0 0.00 0.00 0.00 39 1008.2
20260504223019 72 205 5.0 10.0 0.00 0.00 0.00 35 1008.0
20260504221518 72 199 5.0 9.0 0.00 0.00 0.00 37 1008.2
20260504220008 72 209 4.0 11.0 0.00 0.00 0.00 37 1008.3
20260504214518 72 184 4.0 7.0 0.00 0.00 0.00 36 1008.3
20260504213023 72 190 5.0 7.0 0.00 0.00 0.00 38 1008.3
20260504211521 72 190 6.0 12.0 0.00 0.00 0.00 36 1008.3
20260504210022 73 190 3.0 7.0 0.00 0.00 0.00 37 1008.7
20260504204519 72 205 4.0 12.0 0.00 0.00 0.00 37 1008.7
20260504203002 72 186 6.0 11.0 0.00 0.00 0.00 37 1008.8
20260504201503 71 352 3.0 14.0 0.00 0.00 0.00 37 1009.0
20260504200010 72 186 6.0 12.0 0.00 0.00 0.00 36 1009.2
20260504194511 72 203 4.0 11.0 0.00 0.00 0.00 38 1009.3
20260504193022 71 200 5.0 10.0 0.00 0.00 0.00 39 1009.5
20260504191502 71 167 3.0 9.0 0.00 0.00 0.00 38 1009.6
20260504190007 71 189 3.0 7.0 0.00 0.00 0.00 39 1009.6
20260504184508 70 198 4.0 15.0 0.00 0.00 0.00 38 1009.9
20260504183009 70 235 4.0 9.0 0.00 0.00 0.00 38 1010.2
20260504181503 70 192 4.0 9.0 0.00 0.00 0.00 41 1010.5
20260504180004 70 219 3.0 9.0 0.00 0.00 0.00 39 1010.6
20260504174503 70 192 6.0 9.0 0.00 0.00 0.00 37 1010.8
20260504173009 69 230 3.0 10.0 0.00 0.00 0.00 43 1010.9
20260504171533 69 217 5.0 10.0 0.00 0.00 0.00 41 1011.2
20260504081525 38 238 0.0 0.0 0.00 0.00 0.00 81 1014.0